Latest Coastal Weather Observations for Double Island Point

IDQ60701

Issued at 10:42 pm EST Monday 22 December 2014 (issued every 10 minutes, with the page automatically refreshed every 10 minutes)

About coastal observations | Map of coastal stations | Coastal observations for QLD | Marine services | Other Formats
Station Details ID: 040068 Name: DOUBLE ISLAND POINT LIGHTHOUSE Lat: -25.93 Lon: 153.19 Height: 95.64 m
Data from the previous 72 hours. | See also: Recent months at Double Island Point
Date/Time
EST
Temp

°C
Wind Pressure Rain
since 9am
mm
Weather Cloud Vis
km
Sea
Height
m
Swell
Dir
 
Speed
knots
Gust
knots
hPa Trend Height
m
Period
s
Dir
22/10:30pm 23.0 ESE 20 24 1015.9 - 0.0 - - - - - - -
22/10:00pm 23.0 ESE 20 25 1016.2 - 0.0 - - - - - - -
22/09:30pm 23.1 ESE 18 21 1016.2 - 0.0 - - - - - - -
22/09:00pm 23.1 ESE 19 21 1016.1 - 0.0 - - - - - - -
22/08:30pm 23.1 ESE 19 23 1015.9 - 0.0 - - - - - - -
22/08:00pm 23.2 ESE 19 23 1015.9 - 0.0 - - - - - - -
22/07:30pm 23.2 SE 19 22 1016.0 - 0.0 - - - - - - -
22/07:00pm 23.2 SE 20 24 1015.5 - 0.0 - - - - - - -
22/06:30pm 23.3 ESE 20 23 1015.2 - 0.0 - - - - - - -
22/06:00pm 23.4 ESE 20 23 1014.8 - 0.0 - - - - - - -
22/05:30pm 24.1 SE 19 23 1014.6 - 0.0 - - - - - - -
22/05:00pm 24.1 SE 20 24 1014.6 - 0.0 - - - - - - -
22/04:30pm 24.5 SE 20 24 1014.6 - 0.0 - - - - - - -
22/04:00pm 24.8 SE 20 24 1014.3 - 0.0 - - - - - - -
22/03:30pm 24.5 SE 21 24 1014.3 - 0.0 - - - - - - -
22/03:00pm 25.5 SE 19 22 1014.7 - 0.0 - - - - - - -
22/02:30pm 24.7 SE 19 24 1015.0 - 0.0 - - - - - - -
22/02:00pm 25.6 SE 19 24 1015.2 - 0.0 - - - - - - -
22/01:30pm 26.1 SE 19 23 1015.6 - 0.0 - - - - - - -
22/01:00pm 26.0 SE 19 21 1015.9 - 0.0 - - - - - - -
22/12:30pm 26.7 SE 19 23 1016.3 - 0.0 - - - - - - -
22/12:00pm 26.0 SE 20 22 1016.5 - 0.0 - - - - - - -
22/11:30am 25.9 SE 20 23 1016.8 - 0.0 - - - - - - -
22/11:00am 25.2 SE 20 23 1016.9 - 0.0 - - - - - - -
22/10:30am 26.5 SE 19 23 1017.0 - 0.0 - - - - - - -
22/10:00am 25.9 SE 19 23 1017.0 - 0.0 - - - - - - -
22/09:30am 25.7 SE 19 22 1016.8 - 0.0 - - - - - - -
22/09:00am 25.6 SE 19 24 1016.8 - 0.0 - - - - - - -
22/08:30am 25.8 SE 18 27 1016.6 - 0.0 - - - - - - -
22/08:00am 24.9 SE 20 23 1016.4 - 0.0 - - - - - - -
22/07:30am 23.9 SE 19 22 1016.1 - 0.0 - - - - - - -
22/07:00am 24.2 SE 19 23 1015.9 - 0.0 - - - - - - -
22/06:30am 24.2 SE 19 21 1015.8 - 0.0 - - - - - - -
22/06:00am 23.7 SE 19 23 1015.4 - 0.0 - - - - - - -
22/05:30am 23.2 SE 18 21 1015.2 - 0.0 - - - - - - -
22/05:00am 22.7 SE 18 21 1014.8 - 0.0 - - - - - - -
22/04:30am 22.8 ESE 17 20 1014.7 - 0.0 - - - - - - -
22/04:00am 22.8 SE 14 17 1014.5 - 0.0 - - - - - - -
22/03:30am 22.8 SE 15 19 1014.3 - 0.0 - - - - - - -
22/03:00am 22.8 SE 14 17 1014.4 - 0.0 - - - - - - -
22/02:30am 22.7 SE 14 17 1014.5 - 0.0 - - - - - - -
22/02:00am 22.7 ESE 14 18 1014.8 - 0.0 - - - - - - -
22/01:30am 22.7 ESE 15 19 1015.1 - 0.0 - - - - - - -
22/01:00am 22.7 ESE 16 19 1015.4 - 0.0 - - - - - - -
22/12:30am 22.7 ESE 15 18 1015.8 - 0.0 - - - - - - -
22/12:00am 22.8 SE 16 20 1016.3 - 0.0 - - - - - - -
 
Date/Time
EST
Temp

°C
Wind Pressure Rain
since 9am
mm
Weather Cloud Vis
km
Sea
Height
m
Swell
Dir
 
Speed
knots
Gust
knots
hPa Trend Height
m
Period
s
Dir
21/11:30pm 22.8 SE 17 20 1016.7 - 0.0 - - - - - - -
21/11:00pm 22.9 ESE 16 18 1016.9 - 0.0 - - - - - - -
21/10:30pm 23.0 ESE 16 20 1017.4 - 0.0 - - - - - - -
21/10:00pm 23.0 ESE 16 19 1017.3 - 0.0 - - - - - - -
21/09:30pm 23.2 ESE 16 21 1017.1 - 0.0 - - - - - - -
21/09:00pm 23.1 ESE 17 20 1016.6 - 0.0 - - - - - - -
21/08:30pm 23.1 ESE 18 20 1016.7 - 0.0 - - - - - - -
21/08:00pm 23.3 E 17 20 1016.6 - 0.0 - - - - - - -
21/07:30pm 23.3 ESE 17 22 1016.2 - 0.0 - - - - - - -
21/07:00pm 23.5 ESE 17 21 1015.7 - 0.0 - - - - - - -
21/06:30pm 23.6 ESE 15 19 1015.6 - 0.0 - - - - - - -
21/06:00pm 23.8 ESE 16 19 1015.3 - 0.0 - - - - - - -
21/05:30pm 24.4 E 17 20 1015.1 - 0.0 - - - - - - -
21/05:00pm 24.6 ESE 17 20 1015.0 - 0.0 - - - - - - -
21/04:30pm 25.0 ESE 15 17 1014.9 - 0.0 - - - - - - -
21/04:00pm 25.6 E 15 18 1014.9 - 0.0 - - - - - - -
21/03:30pm 25.8 ESE 14 17 1015.0 - 0.0 - - - - - - -
21/03:00pm 26.3 ESE 13 17 1015.3 - 0.0 - - - - - - -
21/02:30pm 26.8 ESE 14 16 1015.4 - 0.0 - - - - - - -
21/02:00pm 27.2 ESE 12 16 1015.8 - 0.0 - - - - - - -
21/01:30pm 26.6 ESE 13 16 1016.1 - 0.0 - - - - - - -
21/01:00pm 27.0 ESE 13 15 1016.3 - 0.0 - - - - - - -
21/12:30pm 27.2 ESE 13 16 1016.6 - 0.0 - - - - - - -
21/12:00pm 27.1 ESE 13 15 1017.1 - 0.0 - - - - - - -
21/11:30am 27.3 ESE 12 15 1017.3 - 0.0 - - - - - - -
21/11:00am 27.6 ESE 11 15 1017.5 - 0.0 - - - - - - -
21/10:30am 26.2 ESE 12 15 1017.5 - 0.0 - - - - - - -
21/10:00am 27.4 ESE 10 13 1017.5 - 0.0 - - - - - - -
21/09:30am 27.4 E 12 15 1017.4 - 0.0 - - - - - - -
21/09:00am 27.3 E 12 15 1017.3 - 0.0 - - - - - - -
21/08:30am 26.7 E 13 16 1017.4 - 0.0 - - - - - - -
21/08:00am 26.5 E 13 15 1017.3 - 0.0 - - - - - - -
21/07:30am 25.7 E 15 18 1016.9 - 0.0 - - - - - - -
21/07:00am 25.2 E 16 19 1016.5 - 0.0 - - - - - - -
21/06:30am 23.7 ESE 16 20 1016.2 - 0.0 - - - - - - -
21/06:00am 23.8 E 15 19 1016.0 - 0.0 - - - - - - -
21/05:30am 23.4 E 16 20 1015.7 - 0.0 - - - - - - -
21/05:00am 23.1 E 14 17 1015.4 - 0.0 - - - - - - -
21/04:30am 23.0 E 16 19 1014.9 - 0.0 - - - - - - -
21/04:00am 23.1 E 17 20 1014.6 - 0.0 - - - - - - -
21/03:30am 23.1 E 17 20 1014.5 - 0.0 - - - - - - -
21/03:00am 23.2 E 17 20 1014.5 - 0.0 - - - - - - -
21/02:30am 23.2 E 16 19 1014.6 - 0.0 - - - - - - -
21/02:00am 23.4 E 16 19 1014.7 - 0.0 - - - - - - -
21/01:30am 23.5 E 16 20 1014.8 - 0.0 - - - - - - -
21/01:00am 23.5 E 17 19 1014.9 - 0.0 - - - - - - -
21/12:30am 23.6 E 16 19 1015.2 - 0.0 - - - - - - -
21/12:00am 23.7 E 16 19 1015.5 - 0.0 - - - - - - -
 
Date/Time
EST
Temp

°C
Wind Pressure Rain
since 9am
mm
Weather Cloud Vis
km
Sea
Height
m
Swell
Dir
 
Speed
knots
Gust
knots
hPa Trend Height
m
Period
s
Dir
20/11:30pm 23.8 E 17 20 1015.8 - 0.0 - - - - - - -
20/11:00pm 23.8 E 17 19 1016.0 - 0.0 - - - - - - -
20/10:30pm 23.9 E 18 20 1015.9 - 0.0 - - - - - - -
20/10:00pm 23.9 E 17 20 1015.9 - 0.0 - - - - - - -
20/09:30pm 23.9 E 19 22 1015.7 - 0.0 - - - - - - -
20/09:00pm 24.1 E 20 22 1015.6 - 0.0 - - - - - - -
20/08:30pm 24.1 E 22 24 1015.3 - 0.0 - - - - - - -
20/08:00pm 24.1 E 21 23 1014.9 - 0.0 - - - - - - -
20/07:30pm 24.4 E 20 22 1014.5 - 0.0 - - - - - - -
20/07:00pm 24.4 E 20 24 1014.0 - 0.0 - - - - - - -
20/06:30pm 24.7 E 19 22 1013.4 - 0.0 - - - - - - -
20/06:00pm 24.7 E 18 20 1013.4 - 0.0 - - - - - - -
20/05:30pm 25.5 E 15 18 1013.1 - 0.0 - - - - - - -
20/05:00pm 25.9 E 13 17 1013.0 - 0.0 - - - - - - -
20/04:30pm 26.4 E 15 17 1012.5 - 0.0 - - - - - - -
20/04:00pm 26.2 E 14 17 1012.6 - 0.0 - - - - - - -
20/03:30pm 26.8 ESE 14 16 1012.6 - 0.0 - - - - - - -
20/03:00pm 27.2 ESE 15 18 1012.7 - 0.0 - - - - - - -
20/02:30pm 27.2 ESE 13 16 1013.1 - 0.0 - - - - - - -
20/02:00pm 27.4 ESE 12 15 1013.4 - 0.0 - - - - - - -
20/01:30pm 27.7 ESE 12 15 1013.8 - 0.0 - - - - - - -
20/01:00pm 27.7 ESE 13 16 1013.8 - 0.0 - - - - - - -
20/12:30pm 27.8 ESE 14 17 1014.0 - 0.0 - - - - - - -
20/12:00pm 27.8 ESE 13 17 1014.3 - 0.0 - - - - - - -
20/11:30am 27.7 ESE 13 16 1014.7 - 0.0 - - - - - - -
20/11:00am 28.0 ESE 13 16 1015.0 - 0.0 - - - - - - -
20/10:30am 28.0 ESE 14 17 1015.2 - 0.0 - - - - - - -
20/10:00am 27.9 ESE 13 16 1015.3 - 0.0 - - - - - - -
20/09:30am 27.5 ESE 14 17 1015.2 - 0.0 - - - - - - -
20/09:00am 27.1 ESE 14 17 1015.1 - 0.4 - - - - - - -
20/08:30am 26.9 ESE 15 18 1014.9 - 0.4 - - - - - - -
20/08:00am 26.5 SE 17 19 1014.6 - 0.4 - - - - - - -
20/07:30am 25.5 SE 19 21 1014.3 - 0.4 - - - - - - -
20/07:00am 25.1 SE 19 21 1014.0 - 0.4 - - - - - - -
20/06:30am 25.4 SE 19 22 1013.5 - 0.4 - - - - - - -
20/06:00am 25.0 SE 20 22 1013.1 - 0.4 - - - - - - -
20/05:30am 24.5 SE 22 25 1012.7 - 0.4 - - - - - - -
20/05:00am 24.1 SE 21 24 1012.2 - 0.4 - - - - - - -
20/04:30am 24.1 SE 18 21 1012.0 - 0.4 - - - - - - -
20/04:00am 24.1 SE 20 22 1011.7 - 0.4 - - - - - - -
20/03:30am 24.1 SE 19 22 1011.7 - 0.4 - - - - - - -
20/03:00am 24.0 SSE 19 21 1011.6 - 0.4 - - - - - - -
20/02:30am 23.9 SSE 15 19 1011.5 - 0.4 - - - - - - -
20/02:00am 23.7 SSE 17 20 1011.6 - 0.4 - - - - - - -
20/01:30am 23.3 S 14 17 1011.7 - 0.4 - - - - - - -
20/01:00am 23.0 SSE 11 13 1011.7 - 0.4 - - - - - - -
20/12:30am 23.0 SSE 9 11 1011.8 - 0.4 - - - - - - -
20/12:00am 23.4 SW 5 7 1011.9 - 0.4 - - - - - - -
 
Date/Time
EST
Temp

°C
Wind Pressure Rain
since 9am
mm
Weather Cloud Vis
km
Sea
Height
m
Swell
Dir
 
Speed
knots
Gust
knots
hPa Trend Height
m
Period
s
Dir
19/11:30pm 23.7 WNW 10 11 1012.0 - 0.4 - - - - - - -
19/11:00pm 23.6 WNW 12 13 1012.0 - 0.4 - - - - - - -

Other Formats:

Comma delimited format used in spreadsheet applications
http://www.bom.gov.au/fwo/IDQ60701/IDQ60701.94584.axf

JavaScript Object Notation format (JSON) in row-major order
http://www.bom.gov.au/fwo/IDQ60701/IDQ60701.94584.json